ONEWEB-0109, 47259

Orbit data source: Space-Track

ONEWEB-0109, 47259 is a payload satellite owned by One Web (UK) in LEO that was launched on Fri, 18 Dec 2020 UTC via a SOYUZ-2-1B launch vehicle from the Vostochny Cosmodrome (VOSTO). Payload-class satellites include a variety of spacecraft equipped with specific instruments for various scientific and technological missions. These include communications satellites like Starlink; space stations such as the ISS; scientific satellites like the Hubble; Earth observation satellites from companies like Planet Labs, Umbra, and HawkEye 360; GPS; miniature CubeSats for education and research; and military/defense satellites.

Loading next visibility...
Identifier
47259, 2020-100B
Orbit
LEO
Country
Flag of UKUK
Related business
Manufacturer
One Web
Mission
Operational Commercial Communications
Bus & Motor
ARROW, Unknown motor
Mass
148 kg wet, ~140 kg dry
Launch date (UTC)
2020-12-18 (5 years ago)
Launch vehicle
SOYUZ-2-1B
Launch site
Vostochny Cosmodrome (VOSTO)
Object type
Payload
Rocket body
Debris
Shape & HBR
Trap Box + 2 Pan, 6.7 m
Radar Cross Section
3.464 m², Large (>1 m²)

Expand to show TLE details & history
Last TLE update: 13 hours ago

TLE from 13 hours ago
0 ONEWEB-0109
1 47259U 20100B   26094.72604236  .00000316  00000-0  84241-3 0  9993
2 47259  87.9019   5.2445 0001856  74.9074 285.2260 13.12445647254928
Epoch: 2026-04-04T17:25Z
TLE epoch observation values (Epoch: 2026-04-04T17:25:30.059Z)
Latitude
-0.00003°
Longitude
-89.17243°
Altitude
1,216.234 km
Speed
7.246 km/s
True Right ascension
00h 20m 58s
True Declination
0° 00' 00"
Sunlit
Object was in daylight at epoch
Visualization orbit readout
Latitude
Unknown
Longitude
Unknown
Altitude
Unknown
Speed
Unknown
Apparent Right ascension
Unknown
Apparent Declination
Unknown
Sunlit
N/A
Visualization observer readout
Local Sidereal Time
12:26:27
Azimuth
Unknown
Elevation
Unknown
Doppler factor
Unknown
Orbital elements
Apogee altitude
1,212.238 km
Perigee altitude
1,209.421 km
Semi-major axis
7,588.967 km
Eccentricity
0.00019
Inclination
87.9019°
RAAN
5.2445°
Arg. of periapsis
74.9074°
True anomaly
285.20548°
Mean anomaly
285.226°
Eccentric anomaly
285.21574°
Mean motion
3.28299 °/min
Orbital period
109.66 mins
BSTAR
0.00084241
Loading maneuver chart data...
Computing Atmospheric mass density...
Loading historical data...
Loading historical data...
Loading historical data...
Loading historical data...
Loading historical data...
Loading historical data...
Loading historical data...

Documentation

Showing up to 5 results
|